Simultaneous Nadir Overpasses (SNOs) Predictions

Prediction of SNOs between LANDSAT-8 and METOP-A Satellite Orbit:

Table of predicted SNOs for the next 14.0 days since TLE Epoch: 2/29/2020
Index Date (LANDSAT-8) Time (LANDSAT-8) Lat,Lon (LANDSAT-8) SZA (LANDSAT-8 ) Date (METOP-A) Time (METOP-A) Lat,Lon (METOP-A) SZA (METOP-A ) Distance(km) Time Diff (sec)
1 03/01/2020 12:52:28 81.48, 33.04 91.01 03/01/2020 12:52:23 81.49, 33.01 91.00 0.42 5
2 03/01/2020 13:41:55 -81.48,-159.44 89.03 03/01/2020 13:43:03 -81.48,-159.44 89.00 0.42 68
3 03/04/2020 07:37:16 -81.48, -68.22 90.05 03/04/2020 07:36:06 -81.49, -68.32 90.09 1.79 70
4 03/04/2020 08:26:42 81.49, 99.53 89.95 03/04/2020 08:26:46 81.48, 99.41 89.94 2.05 4
5 03/07/2020 03:11:29 -81.48, -1.73 91.12 03/07/2020 03:10:28 -81.49, -1.91 91.16 3.06 61
6 03/07/2020 04:00:55 81.49, 166.00 88.89 03/07/2020 04:01:08 81.48, 165.80 88.87 3.28 13
7 03/09/2020 22:45:43 -81.49, 64.73 92.19 03/09/2020 22:44:50 -81.48, 64.89 92.20 2.59 53
8 03/09/2020 23:35:09 81.49,-127.58 87.81 03/09/2020 23:35:30 81.48,-127.42 87.83 2.69 21
9 03/12/2020 18:19:57 -81.49, 131.15 93.28 03/12/2020 18:19:13 -81.48, 131.28 93.28 2.05 44




NCC Satellite Simultaneous Nadir Overpasses (SNOs) Prediction Service
